SWA1571 KLAX-KPHX

Flight info

Callsign SWA1571
Flight time 0h 59m
Altitude 31000
Route DOTSS2 CNERY BLH HYDRR1
Aircraft B737/M-SDE2E3FGHIRWXY/LB1

Departure

Time 2026-04-20 12:27
Airport Los Angeles International Airport (KLAX)

Arrival

Time 2026-04-20 13:27
Airport Phoenix Sky Harbor International Airport (KPHX)
Time Latitude Longitude Altitude Speed Heading
2026-04-20 12:15 33.94687 -118.40187 125 ft 0 kts 82°
2026-04-20 12:17 33.94687 -118.40188 125 ft 1 kts 82°
2026-04-20 12:17 33.94685 -118.40207 122 ft 3 kts 75°
2026-04-20 12:17 33.94678 -118.40229 125 ft 3 kts 55°
2026-04-20 12:17 33.94666 -118.40244 122 ft 3 kts 15°
2026-04-20 12:18 33.94656 -118.40246 123 ft 0 kts 353°
2026-04-20 12:19 33.94672 -118.40249 121 ft 8 kts 354°
2026-04-20 12:20 33.94767 -118.40264 123 ft 19 kts 351°
2026-04-20 12:20 33.94803 -118.40400 120 ft 23 kts 264°
2026-04-20 12:20 33.94782 -118.40604 125 ft 25 kts 262°
2026-04-20 12:20 33.94762 -118.40805 121 ft 23 kts 264°
2026-04-20 12:21 33.94743 -118.40994 125 ft 22 kts 263°
2026-04-20 12:21 33.94718 -118.41181 125 ft 23 kts 253°
2026-04-20 12:21 33.94607 -118.41275 123 ft 23 kts 165°
2026-04-20 12:21 33.94454 -118.41246 122 ft 22 kts 173°
2026-04-20 12:22 33.94291 -118.41222 123 ft 26 kts 172°
2026-04-20 12:22 33.94098 -118.41198 124 ft 27 kts 176°
2026-04-20 12:22 33.93916 -118.41171 122 ft 25 kts 173°
2026-04-20 12:22 33.93777 -118.41096 123 ft 23 kts 102°
2026-04-20 12:23 33.93785 -118.40909 125 ft 22 kts 83°
2026-04-20 12:23 33.93804 -118.40728 125 ft 21 kts 84°
2026-04-20 12:23 33.93822 -118.40553 124 ft 21 kts 83°
2026-04-20 12:23 33.93839 -118.40386 121 ft 20 kts 83°
2026-04-20 12:24 33.93856 -118.40219 122 ft 21 kts 83°
2026-04-20 12:24 33.93875 -118.40029 125 ft 25 kts 84°
2026-04-20 12:24 33.93898 -118.39805 122 ft 29 kts 83°
2026-04-20 12:24 33.93923 -118.39563 125 ft 29 kts 83°
2026-04-20 12:25 33.93946 -118.39333 125 ft 27 kts 83°
2026-04-20 12:25 33.93969 -118.39119 123 ft 25 kts 83°
2026-04-20 12:25 33.93989 -118.38922 125 ft 23 kts 83°
2026-04-20 12:25 33.94008 -118.38734 125 ft 22 kts 83°
2026-04-20 12:26 33.94026 -118.38551 124 ft 22 kts 83°
2026-04-20 12:26 33.94043 -118.38375 123 ft 21 kts 85°
2026-04-20 12:26 33.93984 -118.38322 121 ft 11 kts 182°
2026-04-20 12:26 33.93947 -118.38384 125 ft 11 kts 265°
2026-04-20 12:27 33.93931 -118.38530 125 ft 36 kts 263°
2026-04-20 12:27 33.93862 -118.39202 123 ft 123 kts 263°
2026-04-20 12:27 33.93723 -118.40472 315 ft 174 kts 262°
2026-04-20 12:27 33.93555 -118.41973 1222 ft 182 kts 262°
2026-04-20 12:28 33.93392 -118.43529 2089 ft 198 kts 261°
2026-04-20 12:28 33.93177 -118.45286 2513 ft 229 kts 262°
2026-04-20 12:28 33.92833 -118.47266 2886 ft 258 kts 242°
2026-04-20 12:28 33.91659 -118.48898 3883 ft 261 kts 220°
2026-04-20 12:29 33.90316 -118.50390 4712 ft 265 kts 224°
2026-04-20 12:29 33.89058 -118.52025 5645 ft 268 kts 227°
2026-04-20 12:29 33.87835 -118.53713 6809 ft 267 kts 228°
2026-04-20 12:29 33.86471 -118.55210 7909 ft 268 kts 208°
2026-04-20 12:30 33.84699 -118.55872 9105 ft 269 kts 186°
2026-04-20 12:30 33.82924 -118.55601 10558 ft 257 kts 170°
2026-04-20 12:30 33.81116 -118.55141 11250 ft 279 kts 170°
2026-04-20 12:30 33.79133 -118.54624 11544 ft 310 kts 169°
2026-04-20 12:31 33.76979 -118.54047 12369 ft 322 kts 169°
2026-04-20 12:31 33.74779 -118.53452 13400 ft 326 kts 169°
2026-04-20 12:31 33.72553 -118.52812 14396 ft 333 kts 164°
2026-04-20 12:31 33.70504 -118.51447 15309 ft 345 kts 142°
2026-04-20 12:32 33.68921 -118.49237 16287 ft 358 kts 122°
2026-04-20 12:32 33.67932 -118.46455 17244 ft 367 kts 112°
2026-04-20 12:32 33.67105 -118.43517 18148 ft 375 kts 111°
2026-04-20 12:32 33.66270 -118.40513 18943 ft 383 kts 111°
2026-04-20 12:33 33.65407 -118.37518 19767 ft 388 kts 112°
2026-04-20 12:33 33.64551 -118.34416 20593 ft 395 kts 105°
2026-04-20 12:33 33.64309 -118.31101 21382 ft 404 kts 91°
2026-04-20 12:33 33.64333 -118.27710 22275 ft 408 kts 90°
2026-04-20 12:34 33.64402 -118.24303 23230 ft 409 kts 90°
2026-04-20 12:34 33.64472 -118.20892 24132 ft 408 kts 90°
2026-04-20 12:34 33.64505 -118.17478 24799 ft 415 kts 91°
2026-04-20 12:34 33.64502 -118.13946 25130 ft 430 kts 91°
2026-04-20 12:35 33.64487 -118.10367 25618 ft 439 kts 91°
2026-04-20 12:35 33.64471 -118.06691 26358 ft 440 kts 91°
2026-04-20 12:35 33.64460 -118.03045 27329 ft 435 kts 91°
2026-04-20 12:35 33.64453 -117.99442 28325 ft 430 kts 90°
2026-04-20 12:36 33.64447 -117.95868 29300 ft 427 kts 90°
2026-04-20 12:36 33.64441 -117.92318 30190 ft 425 kts 90°
2026-04-20 12:36 33.64435 -117.88760 30741 ft 427 kts 90°
2026-04-20 12:36 33.64427 -117.85199 31026 ft 426 kts 90°
2026-04-20 12:37 33.64183 -117.78118 31018 ft 423 kts 104°
2026-04-20 12:37 33.62539 -117.71418 31041 ft 421 kts 108°
2026-04-20 12:38 33.60797 -117.64708 31038 ft 422 kts 108°
2026-04-20 12:38 33.59099 -117.57969 31033 ft 422 kts 108°
2026-04-20 12:39 33.56595 -117.47871 31036 ft 423 kts 108°
2026-04-20 12:40 33.54917 -117.41108 31037 ft 424 kts 107°
2026-04-20 12:40 33.53233 -117.34342 31034 ft 423 kts 107°
2026-04-20 12:41 33.51546 -117.27584 31039 ft 423 kts 107°
2026-04-20 12:41 33.50309 -117.20780 31034 ft 422 kts 91°
2026-04-20 12:42 33.50258 -117.13743 31043 ft 422 kts 89°
2026-04-20 12:42 33.50235 -117.06705 31030 ft 423 kts 90°
2026-04-20 12:43 33.50163 -116.99664 31033 ft 422 kts 90°
2026-04-20 12:43 33.50065 -116.92674 31023 ft 422 kts 90°
2026-04-20 12:44 33.49957 -116.85639 31013 ft 422 kts 90°
2026-04-20 12:44 33.49846 -116.78608 31003 ft 422 kts 90°
2026-04-20 12:45 33.49731 -116.71578 30988 ft 422 kts 90°
2026-04-20 12:45 33.49613 -116.64542 30979 ft 422 kts 90°
2026-04-20 12:46 33.49491 -116.57574 30959 ft 421 kts 90°
2026-04-20 12:46 33.49366 -116.50564 30971 ft 421 kts 90°
2026-04-20 12:47 33.49237 -116.43554 30936 ft 421 kts 90°
2026-04-20 12:47 33.49123 -116.36549 30928 ft 421 kts 90°
2026-04-20 12:48 33.49024 -116.29597 30940 ft 420 kts 89°
2026-04-20 12:48 33.48919 -116.22592 30917 ft 420 kts 89°
2026-04-20 12:49 33.48808 -116.15602 30924 ft 420 kts 89°
2026-04-20 12:49 33.48693 -116.08604 30928 ft 420 kts 89°
2026-04-20 12:50 33.48984 -116.01716 30913 ft 414 kts 70°
2026-04-20 12:50 33.50902 -115.95235 30939 ft 413 kts 67°
2026-04-20 12:51 33.52880 -115.88761 30928 ft 414 kts 67°
2026-04-20 12:51 33.54808 -115.82257 30923 ft 414 kts 68°
2026-04-20 12:52 33.56696 -115.75787 30915 ft 414 kts 68°
2026-04-20 12:52 33.58591 -115.69265 30922 ft 414 kts 68°
2026-04-20 12:53 33.60482 -115.62753 30932 ft 413 kts 68°
2026-04-20 12:53 33.61874 -115.56074 30919 ft 419 kts 88°
2026-04-20 12:54 33.61690 -115.49085 30926 ft 420 kts 90°
2026-04-20 12:54 33.61446 -115.42135 30922 ft 420 kts 90°
2026-04-20 12:55 33.61239 -115.35129 30917 ft 420 kts 89°
2026-04-20 12:55 33.61055 -115.28123 30919 ft 420 kts 89°
2026-04-20 12:56 33.60873 -115.21122 30910 ft 419 kts 89°
2026-04-20 12:56 33.60688 -115.14136 30908 ft 419 kts 89°
2026-04-20 12:57 33.60499 -115.07208 30914 ft 418 kts 89°
2026-04-20 12:57 33.60306 -115.00239 30933 ft 418 kts 89°
2026-04-20 12:58 33.60108 -114.93281 30923 ft 417 kts 89°
2026-04-20 12:58 33.59908 -114.86325 30932 ft 417 kts 89°
2026-04-20 12:59 33.59705 -114.79420 30935 ft 417 kts 89°
2026-04-20 12:59 33.59116 -114.72500 30943 ft 420 kts 99°
2026-04-20 13:00 33.57728 -114.65679 30929 ft 421 kts 102°
2026-04-20 13:00 33.56294 -114.58865 30933 ft 421 kts 101°
2026-04-20 13:01 33.54931 -114.52077 30930 ft 422 kts 101°
2026-04-20 13:01 33.53585 -114.45217 30440 ft 424 kts 101°
2026-04-20 13:01 33.52912 -114.41778 29902 ft 424 kts 101°
2026-04-20 13:02 33.52239 -114.38347 29291 ft 422 kts 100°
2026-04-20 13:02 33.51570 -114.34949 28808 ft 416 kts 101°
2026-04-20 13:02 33.50910 -114.31597 28303 ft 411 kts 101°
2026-04-20 13:02 33.50257 -114.28290 27845 ft 405 kts 101°
2026-04-20 13:03 33.49829 -114.26122 27515 ft 402 kts 101°
2026-04-20 13:03 33.48980 -114.21828 26900 ft 397 kts 101°
2026-04-20 13:03 33.48347 -114.18627 26442 ft 393 kts 101°
2026-04-20 13:03 33.47718 -114.15454 25986 ft 390 kts 101°
2026-04-20 13:04 33.47305 -114.13372 25686 ft 387 kts 102°
2026-04-20 13:04 33.46474 -114.09198 25079 ft 383 kts 102°
2026-04-20 13:04 33.46066 -114.07152 24860 ft 379 kts 102°
2026-04-20 13:04 33.45455 -114.04103 24654 ft 375 kts 102°
2026-04-20 13:05 33.44842 -114.01040 24433 ft 381 kts 102°
2026-04-20 13:05 33.44218 -113.97930 24194 ft 386 kts 102°
2026-04-20 13:05 33.43589 -113.94806 23970 ft 385 kts 102°
2026-04-20 13:05 33.42760 -113.90685 23552 ft 384 kts 103°
2026-04-20 13:06 33.42340 -113.88592 23317 ft 383 kts 103°
2026-04-20 13:06 33.41725 -113.85535 22967 ft 382 kts 103°
2026-04-20 13:06 33.41106 -113.82457 22632 ft 380 kts 103°
2026-04-20 13:06 33.40488 -113.79390 22310 ft 377 kts 103°
2026-04-20 13:07 33.39874 -113.76346 22000 ft 375 kts 103°
2026-04-20 13:07 33.39263 -113.73323 21694 ft 373 kts 103°
2026-04-20 13:07 33.38461 -113.69355 21284 ft 369 kts 103°
2026-04-20 13:07 33.38052 -113.67340 21080 ft 368 kts 103°
2026-04-20 13:08 33.37451 -113.64375 20789 ft 365 kts 103°
2026-04-20 13:08 33.36852 -113.61427 20497 ft 364 kts 103°
2026-04-20 13:08 33.36265 -113.58537 20196 ft 362 kts 103°
2026-04-20 13:08 33.35673 -113.55628 19904 ft 360 kts 103°
2026-04-20 13:09 33.35082 -113.52726 19604 ft 358 kts 104°
2026-04-20 13:09 33.34493 -113.49837 19319 ft 356 kts 104°
2026-04-20 13:09 33.33905 -113.46965 19029 ft 355 kts 104°
2026-04-20 13:09 33.33346 -113.44102 18741 ft 353 kts 102°
2026-04-20 13:10 33.32849 -113.41236 18456 ft 352 kts 101°
2026-04-20 13:10 33.32370 -113.38371 18156 ft 350 kts 101°
2026-04-20 13:10 33.31898 -113.35560 17829 ft 348 kts 101°
2026-04-20 13:10 33.31421 -113.32755 17524 ft 342 kts 102°
2026-04-20 13:11 33.30948 -113.29995 17232 ft 335 kts 102°
2026-04-20 13:11 33.30479 -113.27289 16979 ft 330 kts 102°
2026-04-20 13:11 33.30014 -113.24611 16714 ft 328 kts 102°
2026-04-20 13:11 33.29562 -113.21957 16449 ft 325 kts 101°
2026-04-20 13:12 33.29174 -113.19301 16183 ft 323 kts 101°
2026-04-20 13:12 33.28810 -113.16664 15921 ft 320 kts 101°
2026-04-20 13:12 33.28445 -113.14044 15666 ft 318 kts 101°
2026-04-20 13:12 33.28075 -113.11445 15401 ft 317 kts 101°
2026-04-20 13:13 33.27708 -113.08889 15136 ft 316 kts 101°
2026-04-20 13:13 33.27381 -113.06289 14872 ft 318 kts 96°
2026-04-20 13:13 33.27365 -113.03648 14582 ft 318 kts 90°
2026-04-20 13:13 33.27470 -113.01015 14281 ft 315 kts 89°
2026-04-20 13:14 33.27586 -112.98415 13988 ft 313 kts 90°
2026-04-20 13:14 33.27686 -112.95826 13694 ft 310 kts 90°
2026-04-20 13:14 33.27769 -112.93262 13363 ft 307 kts 90°
2026-04-20 13:14 33.27840 -112.90726 13059 ft 304 kts 91°
2026-04-20 13:15 33.27904 -112.88210 12762 ft 301 kts 91°
2026-04-20 13:15 33.27965 -112.85715 12476 ft 299 kts 91°
2026-04-20 13:15 33.28026 -112.83279 12198 ft 297 kts 89°
2026-04-20 13:15 33.28460 -112.80875 11911 ft 299 kts 70°
2026-04-20 13:16 33.29315 -112.78616 11649 ft 297 kts 68°
2026-04-20 13:16 33.30185 -112.76379 11352 ft 296 kts 67°
2026-04-20 13:16 33.31044 -112.74144 11081 ft 295 kts 67°
2026-04-20 13:16 33.31886 -112.71918 10804 ft 290 kts 68°
2026-04-20 13:17 33.32704 -112.69742 10528 ft 284 kts 68°
2026-04-20 13:17 33.33505 -112.67618 10260 ft 278 kts 67°
2026-04-20 13:17 33.34310 -112.65511 10004 ft 279 kts 67°
2026-04-20 13:17 33.35103 -112.63438 9730 ft 278 kts 67°
2026-04-20 13:18 33.35906 -112.61339 9439 ft 276 kts 67°
2026-04-20 13:18 33.36701 -112.59256 9168 ft 275 kts 67°
2026-04-20 13:18 33.37493 -112.57181 8897 ft 274 kts 66°
2026-04-20 13:18 33.38284 -112.55106 8632 ft 275 kts 66°
2026-04-20 13:19 33.39079 -112.53019 8367 ft 275 kts 66°
2026-04-20 13:19 33.39874 -112.50930 8102 ft 276 kts 66°
2026-04-20 13:19 33.40646 -112.48844 7836 ft 274 kts 68°
2026-04-20 13:19 33.41375 -112.46769 7564 ft 269 kts 68°
2026-04-20 13:20 33.42081 -112.44742 7298 ft 265 kts 68°
2026-04-20 13:20 33.42758 -112.42707 7027 ft 261 kts 75°
2026-04-20 13:20 33.42929 -112.40570 6744 ft 257 kts 90°
2026-04-20 13:20 33.42932 -112.38446 6450 ft 254 kts 91°
2026-04-20 13:21 33.42925 -112.36343 6146 ft 252 kts 91°
2026-04-20 13:21 33.42918 -112.34257 5850 ft 249 kts 91°
2026-04-20 13:21 33.42913 -112.32191 5557 ft 247 kts 91°
2026-04-20 13:21 33.42909 -112.30144 5273 ft 245 kts 91°
2026-04-20 13:22 33.42905 -112.28145 4995 ft 243 kts 90°
2026-04-20 13:22 33.42902 -112.26138 4728 ft 239 kts 90°
2026-04-20 13:22 33.42900 -112.24187 4432 ft 231 kts 90°
2026-04-20 13:22 33.42898 -112.22277 4159 ft 226 kts 90°
2026-04-20 13:23 33.42896 -112.20440 3898 ft 216 kts 90°
2026-04-20 13:23 33.42895 -112.18687 3643 ft 207 kts 90°
2026-04-20 13:23 33.42894 -112.16992 3464 ft 203 kts 91°
2026-04-20 13:23 33.42893 -112.15331 3207 ft 192 kts 91°
2026-04-20 13:24 33.42892 -112.13799 2953 ft 177 kts 90°
2026-04-20 13:24 33.42892 -112.12413 2763 ft 155 kts 91°
2026-04-20 13:24 33.42892 -112.11208 2541 ft 139 kts 91°
2026-04-20 13:24 33.42891 -112.10066 2373 ft 137 kts 91°
2026-04-20 13:25 33.42891 -112.08934 2198 ft 136 kts 91°
2026-04-20 13:25 33.42905 -112.07802 2005 ft 134 kts 90°
2026-04-20 13:25 33.42904 -112.06690 1817 ft 133 kts 91°
2026-04-20 13:25 33.42890 -112.05584 1636 ft 133 kts 91°
2026-04-20 13:26 33.42884 -112.04484 1460 ft 131 kts 90°
2026-04-20 13:26 33.42891 -112.03408 1294 ft 131 kts 90°
2026-04-20 13:26 33.42882 -112.02330 1135 ft 129 kts 91°
2026-04-20 13:26 33.42885 -112.01409 1132 ft 81 kts 89°
2026-04-20 13:27 33.42890 -112.00985 1132 ft 26 kts 86°
2026-04-20 13:27 33.42931 -112.00786 1133 ft 24 kts 55°
2026-04-20 13:27 33.43037 -112.00640 1134 ft 23 kts 29°
2026-04-20 13:27 33.43186 -112.00604 1135 ft 22 kts 42°
2026-04-20 13:28 33.43268 -112.00461 1130 ft 21 kts 39°
2026-04-20 13:28 33.43284 -112.00290 1133 ft 21 kts 91°
2026-04-20 13:28 33.43282 -112.00119 1131 ft 20 kts 91°
2026-04-20 13:28 33.43313 -112.00016 1132 ft 10 kts 20°
2026-04-20 13:29 33.43355 -111.99984 1134 ft 4 kts 38°
2026-04-20 13:29 33.43358 -111.99981 1133 ft 0 kts 39°